Regional Weather Roundup
Issued by NWS Newport/Morehead, NC

Current Version | Previous Version | Graphics & Text | Print | Product List | Glossary Off
Versions: 1 2 3 4 5 6 7 8 9 10 11 12 13 14 15 16 17 18 19 20 21 22 23 24 25 26 27 28 29 30 31 32 33 34 35 36 37 38 39 40 41 42 43 44 45 46 47 48 49 50

000
ASUS42 KMHX 261125
RWRMHX
WEATHER ROUNDUP FOR EASTERN NORTH CAROLINA
NATIONAL WEATHER SERVICE NEWPORT/MOREHEAD CITY NC
700 AM EDT TUE MAY 26 2015

NOTE: "FAIR" INDICATES FEW OR NO CLOUDS BELOW 12,000 FEET
WITH NO SIGNIFICANT WEATHER AND/OR OBSTRUCTIONS TO VISIBILITY

NCZ015>017-031-032-045>047-102-103-261200-
NORTH COAST

CITY           SKY/WX    TMP DP  RH WIND       PRES   REMARKS
EDENTON        SUNNY     70  64  83 S7        30.32R
ELIZABETH CITY SUNNY     66  64  93 S3        30.32R
KITTY HAWK     SUNNY     70  64  80 CALM      30.31R
MANTEO         SUNNY     71  64  80 SW3       30.33R

$$

NCZ045>047-081-094-103-104-261200-
CENTRAL COAST

CITY           SKY/WX    TMP DP  RH WIND       PRES   REMARKS
FRISCO         PTSUNNY   73  64  73 S10       30.32R
SWANQUARTER      N/A     75 N/A N/A SW6       30.30R

$$

NCZ095-097-098-100-101-261200-
SOUTHERN COAST

CITY           SKY/WX    TMP DP  RH WIND       PRES   REMARKS
BEAUFORT       MOSUNNY   74  66  76 S6        30.31R
CEDAR ISLAND     N/A     77 N/A N/A SW3       30.36R
JACKSONVILLE   MOSUNNY   66  62  87 CALM      30.30R
PINEY ISLAND   SUNNY    N/A N/A N/A S3        30.31R
WILMINGTON     CLEAR     66  63  90 NE3       30.28R


$$

NCZ011>013-027>030-043-044-078>080-089-090>093-098-261200-
COASTAL PLAIN

CITY           SKY/WX    TMP DP  RH WIND       PRES   REMARKS
AHOSKIE        SUNNY     61  60  97 CALM      30.32R
CLINTON        PTCLDY    63  63 100 CALM      30.30R
ELIZABETHTOWN  CLEAR     65  65 100 CALM      30.29R
GOLDSBORO      SUNNY     63  62  96 CALM      30.28R
GREENVILLE     SUNNY     63  63 100 CALM      30.32R
HAVELOCK       SUNNY     64  60  87 CALM      30.32R
KENANSVILLE    SUNNY     58  57  96 CALM      30.31R
KINSTON        SUNNY     63  61  94 CALM      30.32R
NEW BERN       CLOUDY    64  61  90 CALM      30.32R
RICHLANDS      PTSUNNY   63  57  82 CALM      30.31R
ROCKY MOUNT    SUNNY     62  61  96 CALM      30.31R FOG
WASHINGTON       N/A     67  63  89 CALM      30.32R
WHITEVILLE     CLEAR     64  63  94 CALM      30.27R

$$

AMZ130-135-150-152-154-156-158-170-250-252-270-ANZ085-086-088-633-658-670-261200-
MARINE OBSERVATIONS

STATION/POSITION TIME  TEMP    WIND        PRES    WAVE   SWELL
                       AIR SEA DIR/SP/G            HT/PER HT/PER
                 (UTC) (F)     (DEG/KT/KT) (MB)    (FT/S) (FT/S)
CHESAPEAKE LIGHT 1100   68     210/ 14/ 14 1026.8
64 E VA BEACH    1050   65 63  190/  4/  6 1026.6    2/ 7   2/ 7
DUCK             1100   70 60  190/  4/  5 1025.8
2 E DUCK         1011      63                N/A     1/ 8
OREGON INLET     1100   73 75  200/  8/ 10 1026.8
13E OREGON INLT  1100      66                N/A     2/ 4
HATTERAS CG      1100   75 75  170/  7/ 11 1026.2
DIAMOND BUOY     1050   75 77  160/ 16/ 17 1026.6    3/ 4   2/ 8
CAPE LOOKOUT     1100   74     160/ 11/ 12 1025.9
BEAUFORT LAB     1100   75 74  190/  8/ 11 1025.5
27 SE WRIGHTSVLE 1100   73 76  170/ 12/ 16   N/A
5 SE WRIGHTSVLE  1008   75 76  160/ 12/ 16 1024.9
225 S CAPE HAT   1050   74 74  130/ 12/ 16 1026.6    4/ 6   3/ 6
41 SE CHARLESTON 1050   78 76  170/  6/  6 1023.9    3/ 6   3/ 6

$$


USA.gov is the U.S. government's official web portal to all federal, state and local government web resources and services.